Content
SEND FEEDBACK

Daily
Averages
Monthly
Summary
United States of America

SAN FRANCISCO, CALIFORNIA


Home > North America > United States > California
Elevation: 128 feet     Latitude: 37 46N     Longitude: 122 26W

WEATHER
 
SELECT A DAY
Number of Records: 184,904;   Date Range: 1/1/95 - 8/12/14
 
SHARE

PRINT THIS DATA

[ ← Previous Day ]
WEATHER ALMANAC - MARCH 28, 2013
[ Next Day → ]
[ °C ]   °F
Weather ElementAverageHighLow
Temperature57.6 °F66 °F (2:56 pm)53.1 °F (11:56 pm)
Dewpoint51 °F52 °F (11:56 am)50 °F (5:56 am)
Humidity79.1 %89 % (11:56 pm)60 % (2:56 pm)
Barometer30.05 in30.09 in (9:38 pm)30.01 in (4:51 am)
Wind Speed7.7 mph15 mph (4:56 pm)
Weather ElementAverage
Visibility10 mi
Wind DirectionSSW (209.6 °)

Weather ElementTotal
Precipitation---
Heating Degree Days5.5 (Base 65)
Growing Degree Days9.6 (Base 50)
Averaged from 28 records on March 28, 2013
WEATHER CONDITIONS BREAKOUT
WIND DIRECTION BREAKOUT
WEATHER BY HOUR - MARCH 28, 2013
[ °C ]   °F
Local TimeTemperatureDewpointHumidityBarometerVisibilityWind DirectionWind SpeedGust SpeedPrecipitationEventsConditions
1:39 AM55.4 °F51.8 °F88 %30.03 in10.0 miSSW (200°)6.9 mphOvercast
1:56 AM55.9 °F51.1 °F84 %30.03 in10.0 miSW (220°)3.5 mphOvercast
2:53 AM55.4 °F51.8 °F88 %30.02 in10.0 miSW (220°)3.5 mph0.00 inMostly Cloudy
2:56 AM55.0 °F51.1 °F86 %30.02 in10.0 miSSW (210°)3.5 mph0.00 inMostly Cloudy
3:56 AM55.0 °F51.1 °F86 %30.02 in10.0 miSSE (160°)6.9 mphOvercast
4:51 AM55.4 °F51.8 °F88 %30.01 in10.0 miSE (140°)9.2 mph0.00 inMostly Cloudy
4:56 AM55.0 °F51.1 °F86 %30.01 in10.0 miSE (140°)9.2 mph0.00 inMostly Cloudy
5:32 AM55.4 °F51.8 °F88 %30.02 in10.0 miCalmOvercast
5:56 AM55.9 °F50.0 °F80 %30.02 in10.0 miCalmOvercast
6:56 AM55.9 °F51.1 °F84 %30.03 in10.0 miSouth (190°)6.9 mphOvercast
7:56 AM55.9 °F51.1 °F84 %30.06 in10.0 miSSW (200°)8.1 mphMostly Cloudy
8:56 AM57.0 °F51.1 °F81 %30.07 in10.0 miSSW (210°)11.5 mphMostly Cloudy
9:56 AM57.9 °F51.1 °F78 %30.07 in10.0 miSSW (210°)9.2 mphMostly Cloudy
10:56 AM61.0 °F51.1 °F70 %30.07 in10.0 miEast (80°)4.6 mphMostly Cloudy
11:56 AM59.0 °F52.0 °F78 %30.08 in10.0 miNNE (30°)9.2 mphMostly Cloudy
12:56 PM61.0 °F52.0 °F72 %30.08 in10.0 miNorth (360°)4.6 mphMostly Cloudy
1:56 PM64.0 °F51.1 °F63 %30.07 in10.0 miNorth (10°)3.5 mphOvercast
2:56 PM66.0 °F52.0 °F60 %30.05 in10.0 miNorth (360°)9.2 mphMostly Cloudy
3:56 PM64.9 °F51.1 °F61 %30.05 in10.0 miWNW (300°)12.7 mphMostly Cloudy
4:56 PM61.0 °F51.1 °F70 %30.05 in10.0 miWNW (290°)15.0 mphScattered Clouds
5:56 PM61.0 °F51.1 °F70 %30.05 in10.0 miWNW (300°)11.5 mphScattered Clouds
6:56 PM59.0 °F50.0 °F72 %30.06 in10.0 miWNW (290°)11.5 mphScattered Clouds
7:56 PM55.9 °F50.0 °F80 %30.07 in10.0 miWNW (290°)10.4 mphScattered Clouds
8:56 PM55.9 °F50.0 °F80 %30.08 in10.0 miWNW (290°)9.2 mphScattered Clouds
9:38 PM55.4 °F50.0 °F82 %30.09 in10.0 miWNW (290°)11.5 mphMostly Cloudy
9:56 PM55.9 °F50.0 °F80 %30.09 in10.0 miWNW (290°)10.4 mphMostly Cloudy
10:56 PM54.0 °F50.0 °F86 %30.09 in10.0 miWNW (300°)5.8 mphPartly Cloudy
11:56 PM53.1 °F50.0 °F89 %30.09 in10.0 miWNW (290°)9.2 mphPartly Cloudy
Hourly data recorded from KSFO, located miles away from San Francisco, California







STORIES FROM OUR PARTNERS